Time,TemperatureF,DewpointF,PressureIn,WindDirection,WindDirectionDegrees,WindSpeedMPH,WindSpeedGustMPH,Humidity,HourlyPrecipIn,Conditions,Clouds,dailyrainin,SolarRadiationWatts/m^2,SoftwareType,DateUTC
2013-03-13 00:00:00,69.4,65.4,29.96,WNW,290,4.0,4.0,87,0.00,,BKN090,0.00,0.00,VWS V14.00,2013-03-13 04:00:00,
2013-03-13 00:01:00,69.4,65.4,29.96,WNW,290,1.0,5.0,87,0.00,,BKN090,0.00,0.00,VWS V14.00,2013-03-13 04:01:00,
2013-03-13 00:06:00,69.4,65.4,29.95,WNW,290,0.0,1.0,87,0.00,,BKN090,0.00,0.00,VWS V14.00,2013-03-13 04:06:00,
2013-03-13 00:11:00,69.4,65.4,29.95,WNW,290,1.0,1.0,87,0.00,,BKN090,0.00,0.00,VWS V14.00,2013-03-13 04:11:00,
2013-03-13 00:16:00,69.4,65.4,29.95,WNW,290,0.0,2.0,87,0.00,,BKN090,0.00,0.00,VWS V14.00,2013-03-13 04:16:00,
2013-03-13 00:22:00,69.3,65.3,29.95,WNW,290,0.0,0.0,87,0.00,,BKN090,0.00,0.00,VWS V14.00,2013-03-13 04:22:00,
2013-03-13 00:27:00,69.3,65.3,29.95,WNW,290,0.0,0.0,87,0.00,,BKN090,0.00,0.00,VWS V14.00,2013-03-13 04:27:00,
2013-03-13 00:32:00,69.3,65.3,29.95,WNW,290,0.0,0.0,87,0.00,,BKN090,0.00,0.00,VWS V14.00,2013-03-13 04:32:00,
2013-03-13 00:37:00,69.3,65.3,29.95,WNW,290,1.0,1.0,87,0.00,,BKN090,0.00,0.00,VWS V14.00,2013-03-13 04:37:00,
2013-03-13 00:42:00,69.3,65.3,29.95,WNW,290,0.0,1.0,87,0.00,,BKN090,0.00,0.00,VWS V14.00,2013-03-13 04:42:00,
2013-03-13 00:47:00,69.3,65.3,29.95,WNW,290,0.0,0.0,87,0.00,,BKN090,0.00,0.00,VWS V14.00,2013-03-13 04:47:00,
2013-03-13 00:52:00,69.3,65.3,29.95,WNW,290,0.0,0.0,87,0.00,,BKN090,0.00,0.00,VWS V14.00,2013-03-13 04:52:00,
2013-03-13 00:57:00,69.3,65.3,29.95,WNW,290,3.0,3.0,87,0.00,,BKN090,0.00,0.00,VWS V14.00,2013-03-13 04:57:00,
2013-03-13 01:02:00,69.2,65.5,29.95,WNW,290,1.0,2.0,88,0.00,,BKN090,0.00,0.00,VWS V14.00,2013-03-13 05:02:00,
2013-03-13 01:07:00,69.2,65.5,29.96,WNW,290,0.0,5.0,88,0.00,,BKN090,0.00,0.00,VWS V14.00,2013-03-13 05:07:00,
2013-03-13 01:12:00,69.0,65.3,29.96,WNW,298,5.0,7.0,88,0.00,,BKN090,0.00,0.00,VWS V14.00,2013-03-13 05:12:00,
2013-03-13 01:17:00,68.9,65.2,29.95,NW,316,6.0,9.0,88,0.00,,BKN090,0.00,0.00,VWS V14.00,2013-03-13 05:17:00,
2013-03-13 01:22:00,68.6,64.6,29.96,NNW,328,4.0,6.0,87,0.00,,BKN090,0.00,0.00,VWS V14.00,2013-03-13 05:22:00,
2013-03-13 01:27:00,68.3,64.3,29.96,WNW,290,7.0,10.0,87,0.00,,BKN090,0.00,0.00,VWS V14.00,2013-03-13 05:27:00,
2013-03-13 01:32:00,68.0,64.0,29.95,WNW,297,0.0,5.0,87,0.00,,BKN090,0.00,0.00,VWS V14.00,2013-03-13 05:32:00,
2013-03-13 01:37:00,67.7,63.7,29.96,NNW,328,0.0,7.0,87,0.00,,BKN090,0.00,0.00,VWS V14.00,2013-03-13 05:37:00,
2013-03-13 01:42:00,67.6,63.6,29.96,NNW,348,2.0,4.0,87,0.00,,BKN090,0.00,0.00,VWS V14.00,2013-03-13 05:42:00,
2013-03-13 01:47:00,67.5,63.5,29.96,NNW,329,2.0,6.0,87,0.00,,BKN090,0.00,0.00,VWS V14.00,2013-03-13 05:47:00,
2013-03-13 01:52:00,67.3,63.3,29.96,NNW,333,0.0,5.0,87,0.00,,BKN090,0.00,0.00,VWS V14.00,2013-03-13 05:52:00,
2013-03-13 01:57:00,67.3,63.3,29.96,NNW,333,5.0,5.0,87,0.00,,BKN090,0.00,0.00,VWS V14.00,2013-03-13 05:57:00,
2013-03-13 02:02:00,67.2,63.2,29.96,NNW,342,9.0,9.0,87,0.00,,BKN090,0.00,0.00,VWS V14.00,2013-03-13 06:02:00,
2013-03-13 02:07:00,67.0,63.0,29.95,NNW,340,5.0,5.0,87,0.00,,BKN090,0.00,0.00,VWS V14.00,2013-03-13 06:07:00,
2013-03-13 02:13:00,66.7,63.0,29.95,NNW,333,1.0,4.0,88,0.00,,BKN090,0.00,0.00,VWS V14.00,2013-03-13 06:13:00,
2013-03-13 02:18:00,66.5,62.8,29.96,NNW,331,5.0,7.0,88,0.00,,BKN090,0.00,0.00,VWS V14.00,2013-03-13 06:18:00,
2013-03-13 02:23:00,66.4,62.7,29.95,NNW,334,5.0,6.0,88,0.00,,BKN090,0.00,0.00,VWS V14.00,2013-03-13 06:23:00,
2013-03-13 02:28:00,66.2,62.2,29.95,NNW,345,3.0,7.0,87,0.00,,BKN090,0.00,0.00,VWS V14.00,2013-03-13 06:28:00,
2013-03-13 02:33:00,66.2,62.5,29.95,NNW,346,0.0,4.0,88,0.00,,BKN090,0.00,0.00,VWS V14.00,2013-03-13 06:33:00,
2013-03-13 02:38:00,66.1,62.5,29.95,NNW,342,0.0,3.0,88,0.00,,BKN090,0.00,0.00,VWS V14.00,2013-03-13 06:38:00,
2013-03-13 02:43:00,65.9,62.2,29.95,NNW,336,4.0,5.0,88,0.00,,BKN090,0.00,0.00,VWS V14.00,2013-03-13 06:43:00,
2013-03-13 02:48:00,65.8,62.2,29.95,NNW,347,0.0,3.0,88,0.00,,BKN090,0.00,0.00,VWS V14.00,2013-03-13 06:48:00,
2013-03-13 02:53:00,65.7,62.0,29.95,NNW,335,0.0,2.0,88,0.00,,BKN090,0.00,0.00,VWS V14.00,2013-03-13 06:53:00,
2013-03-13 02:58:00,65.5,61.9,29.95,NNW,335,3.0,6.0,88,0.00,,BKN090,0.00,0.00,VWS V14.00,2013-03-13 06:58:00,
2013-03-13 03:03:00,65.2,61.6,29.95,NNW,343,7.0,8.0,88,0.00,,BKN090,0.00,0.00,VWS V14.00,2013-03-13 07:03:00,
2013-03-13 03:08:00,65.1,61.5,29.94,NNW,346,2.0,7.0,88,0.00,,BKN090,0.00,0.00,VWS V14.00,2013-03-13 07:08:00,
2013-03-13 03:13:00,64.9,61.3,29.94,North,355,6.0,8.0,88,0.00,,BKN090,0.00,0.00,VWS V14.00,2013-03-13 07:13:00,
2013-03-13 03:18:00,64.8,61.2,29.94,NNW,334,7.0,8.0,88,0.00,,BKN090,0.00,0.00,VWS V14.00,2013-03-13 07:18:00,
2013-03-13 03:23:00,64.6,61.0,29.94,NNW,338,6.0,10.0,88,0.00,,BKN090,0.00,0.00,VWS V14.00,2013-03-13 07:23:00,
2013-03-13 03:28:00,64.4,60.8,29.93,NNW,343,4.0,9.0,88,0.00,,BKN090,0.00,0.00,VWS V14.00,2013-03-13 07:28:00,
2013-03-13 03:33:00,64.2,60.6,29.93,North,350,3.0,9.0,88,0.00,,BKN090,0.00,0.00,VWS V14.00,2013-03-13 07:33:00,
2013-03-13 03:38:00,64.0,60.4,29.93,North,351,3.0,13.0,88,0.00,,BKN090,0.00,0.00,VWS V14.00,2013-03-13 07:38:00,
2013-03-13 03:43:00,63.6,60.0,29.93,North,355,7.0,9.0,88,0.00,,BKN090,0.00,0.00,VWS V14.00,2013-03-13 07:43:00,
2013-03-13 03:48:00,63.4,59.8,29.94,NW,313,4.0,6.0,88,0.00,,BKN090,0.00,0.00,VWS V14.00,2013-03-13 07:48:00,
2013-03-13 03:53:00,63.1,59.2,29.94,WNW,292,2.0,10.0,87,0.00,,BKN090,0.00,0.00,VWS V14.00,2013-03-13 07:53:00,
2013-03-13 03:58:00,62.9,59.0,29.94,NNW,327,4.0,6.0,87,0.00,,BKN090,0.00,0.00,VWS V14.00,2013-03-13 07:58:00,
2013-03-13 04:03:00,62.7,58.8,29.95,NNW,348,7.0,13.0,87,0.00,,BKN090,0.00,0.00,VWS V14.00,2013-03-13 08:03:00,
2013-03-13 04:08:00,62.5,58.6,29.95,NNW,336,6.0,10.0,87,0.00,,BKN090,0.00,0.00,VWS V14.00,2013-03-13 08:08:00,
2013-03-13 04:13:00,62.3,58.7,29.94,NNW,329,12.0,12.0,88,0.00,,BKN090,0.00,0.00,VWS V14.00,2013-03-13 08:13:00,
2013-03-13 04:18:00,62.0,58.1,29.95,NNW,335,7.0,7.0,87,0.00,,BKN090,0.00,0.00,VWS V14.00,2013-03-13 08:18:00,
2013-03-13 04:23:00,61.7,57.8,29.95,North,360,5.0,7.0,87,0.00,,BKN090,0.00,0.00,VWS V14.00,2013-03-13 08:23:00,
2013-03-13 04:28:00,61.4,57.5,29.95,NNW,337,6.0,8.0,87,0.00,,BKN090,0.00,0.00,VWS V14.00,2013-03-13 08:28:00,
2013-03-13 04:33:00,61.2,57.6,29.95,North,355,5.0,5.0,88,0.00,,BKN090,0.00,0.00,VWS V14.00,2013-03-13 08:33:00,
2013-03-13 04:38:00,60.8,57.2,29.95,North,349,7.0,10.0,88,0.00,,BKN090,0.00,0.00,VWS V14.00,2013-03-13 08:38:00,
2013-03-13 04:43:00,60.3,56.7,29.95,North,355,8.0,10.0,88,0.00,,BKN090,0.00,0.00,VWS V14.00,2013-03-13 08:43:00,
2013-03-13 04:48:00,59.9,56.3,29.95,NNW,336,6.0,7.0,88,0.00,,BKN090,0.00,0.00,VWS V14.00,2013-03-13 08:48:00,
2013-03-13 04:54:00,59.7,56.5,29.95,North,360,3.0,4.0,89,0.00,,BKN090,0.00,0.00,VWS V14.00,2013-03-13 08:54:00,
2013-03-13 04:59:00,59.5,56.3,29.95,NNW,343,5.0,6.0,89,0.00,,BKN090,0.00,0.00,VWS V14.00,2013-03-13 08:59:00,
2013-03-13 05:04:00,59.3,56.1,29.96,NNW,346,7.0,7.0,89,0.00,,BKN090,0.00,0.00,VWS V14.00,2013-03-13 09:04:00,
2013-03-13 05:09:00,59.1,55.9,29.96,NNW,346,6.0,6.0,89,0.00,,BKN090,0.00,0.00,VWS V14.00,2013-03-13 09:09:00,
2013-03-13 05:14:00,59.0,55.8,29.95,NNW,347,4.0,5.0,89,0.00,,BKN090,0.00,0.00,VWS V14.00,2013-03-13 09:14:00,
2013-03-13 05:19:00,58.8,55.9,29.96,NNW,343,4.0,7.0,90,0.00,,BKN090,0.00,0.00,VWS V14.00,2013-03-13 09:19:00,
2013-03-13 05:24:00,58.7,55.8,29.96,NNW,343,3.0,4.0,90,0.00,,BKN090,0.00,0.00,VWS V14.00,2013-03-13 09:24:00,
2013-03-13 05:29:00,58.5,55.6,29.95,NNW,343,0.0,3.0,90,0.00,,BKN090,0.00,0.00,VWS V14.00,2013-03-13 09:29:00,
2013-03-13 05:34:00,58.4,55.5,29.96,NNW,340,2.0,4.0,90,0.00,,BKN090,0.00,0.00,VWS V14.00,2013-03-13 09:34:00,
2013-03-13 05:39:00,58.4,55.5,29.96,NNW,337,4.0,4.0,90,0.00,,BKN090,0.00,0.00,VWS V14.00,2013-03-13 09:39:00,
2013-03-13 05:44:00,58.3,55.4,29.96,NNW,338,4.0,6.0,90,0.00,,BKN090,0.00,0.00,VWS V14.00,2013-03-13 09:44:00,
2013-03-13 05:49:00,58.2,55.3,29.96,NNW,337,2.0,4.0,90,0.00,,BKN090,0.00,0.00,VWS V14.00,2013-03-13 09:49:00,
2013-03-13 05:54:00,58.3,55.7,29.96,NNW,335,2.0,6.0,91,0.00,,BKN090,0.00,0.00,VWS V14.00,2013-03-13 09:54:00,
2013-03-13 05:59:00,58.5,55.9,29.97,NNW,335,4.0,6.0,91,0.00,,BKN090,0.00,0.00,VWS V14.00,2013-03-13 09:59:00,
2013-03-13 06:04:00,58.7,56.1,29.97,North,351,3.0,6.0,91,0.00,,BKN090,0.00,0.00,VWS V14.00,2013-03-13 10:04:00,
2013-03-13 06:09:00,58.7,56.1,29.97,North,355,3.0,6.0,91,0.00,,BKN090,0.00,0.00,VWS V14.00,2013-03-13 10:09:00,
2013-03-13 06:14:00,58.7,56.1,29.97,NNW,331,3.0,5.0,91,0.00,,BKN090,0.00,0.00,VWS V14.00,2013-03-13 10:14:00,
2013-03-13 06:19:00,58.7,56.1,29.98,NNW,342,5.0,9.0,91,0.00,,BKN090,0.00,0.00,VWS V14.00,2013-03-13 10:19:00,
2013-03-13 06:24:00,58.7,56.1,29.98,NNW,348,3.0,7.0,91,0.00,,BKN090,0.00,0.00,VWS V14.00,2013-03-13 10:24:00,
2013-03-13 06:29:00,58.6,56.0,29.99,North,355,4.0,6.0,91,0.00,,BKN090,0.00,0.00,VWS V14.00,2013-03-13 10:29:00,
2013-03-13 06:34:00,58.5,55.9,29.99,NNW,340,0.0,6.0,91,0.00,,BKN090,0.00,0.00,VWS V14.00,2013-03-13 10:34:00,
2013-03-13 06:39:00,58.4,55.8,29.99,NNW,342,5.0,5.0,91,0.00,,BKN090,0.00,0.00,VWS V14.00,2013-03-13 10:39:00,
2013-03-13 06:44:00,58.2,55.6,29.98,NNW,346,5.0,6.0,91,0.00,,BKN090,0.00,0.00,VWS V14.00,2013-03-13 10:44:00,
2013-03-13 06:49:00,58.1,55.5,29.98,North,360,3.0,10.0,91,0.00,,BKN090,0.00,0.00,VWS V14.00,2013-03-13 10:49:00,
2013-03-13 06:54:00,57.9,55.3,29.99,NNE,12,4.0,10.0,91,0.00,,BKN090,0.00,0.00,VWS V14.00,2013-03-13 10:54:00,
2013-03-13 06:59:00,57.8,55.2,29.99,North,349,2.0,9.0,91,0.00,,BKN090,0.00,0.00,VWS V14.00,2013-03-13 10:59:00,
2013-03-13 07:04:00,57.7,54.8,29.99,North,5,4.0,5.0,90,0.00,,BKN090,0.00,0.00,VWS V14.00,2013-03-13 11:04:00,
2013-03-13 07:09:00,57.6,54.7,30.00,North,5,9.0,10.0,90,0.00,,BKN090,0.00,0.00,VWS V14.00,2013-03-13 11:09:00,
2013-03-13 07:14:00,57.6,54.7,30.00,North,360,6.0,6.0,90,0.00,,BKN090,0.00,0.00,VWS V14.00,2013-03-13 11:14:00,
2013-03-13 07:19:00,57.5,54.6,30.00,North,360,2.0,10.0,90,0.00,,BKN090,0.00,0.00,VWS V14.00,2013-03-13 11:19:00,
2013-03-13 07:24:00,57.3,54.4,30.00,North,11,5.0,5.0,90,0.00,,BKN090,0.00,0.00,VWS V14.00,2013-03-13 11:24:00,
2013-03-13 07:29:00,57.3,54.4,30.00,North,11,4.0,7.0,90,0.00,,BKN090,0.00,0.00,VWS V14.00,2013-03-13 11:29:00,
2013-03-13 07:34:00,57.2,54.3,30.00,North,5,4.0,7.0,90,0.00,,BKN008,0.00,0.00,VWS V14.00,2013-03-13 11:34:00,
2013-03-13 07:39:00,57.2,54.3,30.00,North,5,5.0,6.0,90,0.00,,BKN008,0.00,0.00,VWS V14.00,2013-03-13 11:39:00,
2013-03-13 07:44:00,57.1,54.2,30.00,NNE,17,2.0,4.0,90,0.00,,BKN008,0.00,7.00,VWS V14.00,2013-03-13 11:44:00,
2013-03-13 07:49:00,57.1,54.2,30.00,NW,317,3.0,4.0,90,0.00,,BKN008,0.00,11.00,VWS V14.00,2013-03-13 11:49:00,
2013-03-13 07:54:00,57.1,54.2,30.01,NNW,344,2.0,5.0,90,0.00,,BKN008,0.00,14.00,VWS V14.00,2013-03-13 11:54:00,
2013-03-13 07:59:00,57.1,54.2,30.01,North,355,3.0,4.0,90,0.00,,BKN008,0.00,19.00,VWS V14.00,2013-03-13 11:59:00,
2013-03-13 08:04:00,57.1,54.2,30.01,East,94,2.0,4.0,90,0.00,,BKN008,0.00,30.00,VWS V14.00,2013-03-13 12:04:00,
2013-03-13 08:10:00,57.1,54.2,30.01,NNE,19,5.0,6.0,90,0.00,,BKN008,0.00,26.00,VWS V14.00,2013-03-13 12:10:00,
2013-03-13 08:15:00,57.2,54.3,30.01,NW,309,4.0,6.0,90,0.00,,BKN008,0.00,33.00,VWS V14.00,2013-03-13 12:15:00,
2013-03-13 08:20:00,57.3,54.4,30.01,NNW,344,4.0,7.0,90,0.00,,BKN008,0.00,37.00,VWS V14.00,2013-03-13 12:20:00,
2013-03-13 08:25:00,57.3,54.4,30.02,North,355,8.0,9.0,90,0.00,,BKN008,0.00,44.00,VWS V14.00,2013-03-13 12:25:00,
2013-03-13 08:30:00,57.4,54.5,30.02,NNW,347,5.0,6.0,90,0.00,,BKN008,0.00,44.00,VWS V14.00,2013-03-13 12:30:00,
2013-03-13 08:35:00,57.5,54.6,30.02,North,350,4.0,4.0,90,0.00,,BKN120,0.00,40.00,VWS V14.00,2013-03-13 12:35:00,
2013-03-13 08:40:00,57.5,54.3,30.02,North,350,1.0,4.0,89,0.00,,BKN120,0.00,42.00,VWS V14.00,2013-03-13 12:40:00,
2013-03-13 08:45:00,57.7,54.5,30.02,North,5,6.0,6.0,89,0.00,,BKN120,0.00,56.00,VWS V14.00,2013-03-13 12:45:00,
2013-03-13 08:50:00,57.7,54.2,30.02,North,5,6.0,6.0,88,0.00,,BKN120,0.00,53.00,VWS V14.00,2013-03-13 12:50:00,
2013-03-13 08:55:00,57.8,54.3,30.03,North,355,4.0,6.0,88,0.00,,BKN120,0.00,58.00,VWS V14.00,2013-03-13 12:55:00,
2013-03-13 09:00:00,57.9,54.1,30.03,North,360,7.0,8.0,87,0.00,,BKN120,0.00,67.00,VWS V14.00,2013-03-13 13:00:00,
2013-03-13 09:05:00,58.0,53.8,30.03,North,355,3.0,8.0,86,0.00,,BKN120,0.00,77.00,VWS V14.00,2013-03-13 13:05:00,
2013-03-13 09:10:00,58.2,54.0,30.03,NNE,17,7.0,10.0,86,0.00,,BKN120,0.00,67.00,VWS V14.00,2013-03-13 13:10:00,
2013-03-13 09:15:00,58.4,53.9,30.03,North,10,7.0,11.0,85,0.00,,BKN120,0.00,69.00,VWS V14.00,2013-03-13 13:15:00,
2013-03-13 09:20:00,58.5,54.0,30.04,North,5,9.0,9.0,85,0.00,,BKN120,0.00,69.00,VWS V14.00,2013-03-13 13:20:00,
2013-03-13 09:25:00,58.7,54.2,30.03,NNE,12,6.0,7.0,85,0.00,,BKN120,0.00,65.00,VWS V14.00,2013-03-13 13:25:00,
2013-03-13 09:30:00,58.9,54.1,30.04,NE,34,7.0,11.0,84,0.00,,BKN120,0.00,65.00,VWS V14.00,2013-03-13 13:30:00,
2013-03-13 09:35:00,59.0,54.2,30.04,NE,42,6.0,11.0,84,0.00,,CLR,0.00,77.00,VWS V14.00,2013-03-13 13:35:00,
2013-03-13 09:40:00,59.1,54.0,30.04,North,355,5.0,12.0,83,0.00,,CLR,0.00,151.00,VWS V14.00,2013-03-13 13:40:00,
2013-03-13 09:45:00,59.2,53.7,30.05,North,360,7.0,14.0,82,0.00,,CLR,0.00,98.00,VWS V14.00,2013-03-13 13:45:00,
2013-03-13 09:50:00,59.3,53.8,30.04,North,5,10.0,13.0,82,0.00,,CLR,0.00,88.00,VWS V14.00,2013-03-13 13:50:00,
2013-03-13 09:55:00,59.4,53.9,30.05,North,5,6.0,16.0,82,0.00,,CLR,0.00,79.00,VWS V14.00,2013-03-13 13:55:00,
2013-03-13 10:00:00,59.6,54.1,30.05,NNE,20,9.0,10.0,82,0.00,,CLR,0.00,90.00,VWS V14.00,2013-03-13 14:00:00,
2013-03-13 10:05:00,59.8,54.3,30.05,NNE,17,4.0,11.0,82,0.00,,CLR,0.00,81.00,VWS V14.00,2013-03-13 14:05:00,
2013-03-13 10:10:00,60.0,54.5,30.05,NE,37,5.0,6.0,82,0.00,,CLR,0.00,128.00,VWS V14.00,2013-03-13 14:10:00,
2013-03-13 10:15:00,60.4,54.9,30.05,NE,38,4.0,6.0,82,0.00,,CLR,0.00,114.00,VWS V14.00,2013-03-13 14:15:00,
2013-03-13 10:20:00,60.6,54.8,30.05,NNE,22,3.0,10.0,81,0.00,,CLR,0.00,104.00,VWS V14.00,2013-03-13 14:20:00,
2013-03-13 10:25:00,60.8,54.9,30.06,North,5,5.0,9.0,81,0.00,,CLR,0.00,102.00,VWS V14.00,2013-03-13 14:25:00,
2013-03-13 10:30:00,61.1,55.2,30.06,North,5,7.0,12.0,81,0.00,,CLR,0.00,132.00,VWS V14.00,2013-03-13 14:30:00,
2013-03-13 10:35:00,61.3,55.1,30.06,North,11,5.0,6.0,80,0.00,,CLR,0.00,139.00,VWS V14.00,2013-03-13 14:35:00,
2013-03-13 10:40:00,61.9,55.7,30.06,NNE,13,5.0,7.0,80,0.00,,CLR,0.00,146.00,VWS V14.00,2013-03-13 14:40:00,
2013-03-13 10:45:00,62.1,55.5,30.06,NNE,20,4.0,10.0,79,0.00,,CLR,0.00,134.00,VWS V14.00,2013-03-13 14:45:00,
2013-03-13 10:50:00,62.4,55.8,30.06,NNE,14,6.0,6.0,79,0.00,,CLR,0.00,134.00,VWS V14.00,2013-03-13 14:50:00,
2013-03-13 10:55:00,62.8,55.8,30.07,North,360,10.0,12.0,78,0.00,,CLR,0.00,144.00,VWS V14.00,2013-03-13 14:55:00,
2013-03-13 11:00:00,62.9,55.6,30.06,North,360,10.0,10.0,77,0.00,,CLR,0.00,153.00,VWS V14.00,2013-03-13 15:00:00,
2013-03-13 11:05:00,63.0,55.7,30.06,North,5,8.0,11.0,77,0.00,,CLR,0.00,188.00,VWS V14.00,2013-03-13 15:05:00,
2013-03-13 11:10:00,63.7,56.7,30.07,NNE,15,4.0,10.0,78,0.00,,CLR,0.00,199.00,VWS V14.00,2013-03-13 15:10:00,
2013-03-13 11:15:00,64.0,56.3,30.07,NNE,23,6.0,9.0,76,0.00,,CLR,0.00,132.00,VWS V14.00,2013-03-13 15:15:00,
2013-03-13 11:20:00,64.3,56.6,30.07,North,5,6.0,7.0,76,0.00,,CLR,0.00,149.00,VWS V14.00,2013-03-13 15:20:00,
2013-03-13 11:25:00,64.5,56.4,30.07,North,5,4.0,7.0,75,0.00,,CLR,0.00,148.00,VWS V14.00,2013-03-13 15:25:00,
2013-03-13 11:30:00,64.7,56.6,30.07,North,11,5.0,6.0,75,0.00,,CLR,0.00,172.00,VWS V14.00,2013-03-13 15:30:00,
2013-03-13 11:35:00,65.0,56.9,30.07,North,355,6.0,6.0,75,0.00,,CLR,0.00,153.00,VWS V14.00,2013-03-13 15:35:00,
2013-03-13 11:40:00,65.3,57.2,30.07,NNE,23,4.0,7.0,75,0.00,,CLR,0.00,142.00,VWS V14.00,2013-03-13 15:40:00,
2013-03-13 11:45:00,65.6,57.1,30.06,NE,35,5.0,8.0,74,0.00,,CLR,0.00,155.00,VWS V14.00,2013-03-13 15:45:00,
2013-03-13 11:50:00,65.8,57.3,30.07,North,5,3.0,6.0,74,0.00,,CLR,0.00,153.00,VWS V14.00,2013-03-13 15:50:00,
2013-03-13 11:55:00,66.3,57.8,30.07,North,360,9.0,10.0,74,0.00,,CLR,0.00,149.00,VWS V14.00,2013-03-13 15:55:00,
2013-03-13 12:00:00,66.3,57.8,30.07,NNE,15,5.0,5.0,74,0.00,,CLR,0.00,197.00,VWS V14.00,2013-03-13 16:00:00,
2013-03-13 12:05:00,66.7,58.2,30.07,NNE,14,3.0,7.0,74,0.00,,CLR,0.00,155.00,VWS V14.00,2013-03-13 16:05:00,
2013-03-13 12:10:00,67.0,58.1,30.07,NNE,12,8.0,11.0,73,0.00,,CLR,0.00,174.00,VWS V14.00,2013-03-13 16:10:00,
2013-03-13 12:15:00,67.3,58.0,30.07,North,5,7.0,7.0,72,0.00,,CLR,0.00,186.00,VWS V14.00,2013-03-13 16:15:00,
2013-03-13 12:20:00,67.6,58.7,30.07,NNW,338,6.0,8.0,73,0.00,,CLR,0.00,178.00,VWS V14.00,2013-03-13 16:20:00,
2013-03-13 12:25:00,68.3,58.2,30.07,ENE,65,7.0,9.0,70,0.00,,CLR,0.00,130.00,VWS V14.00,2013-03-13 16:25:00,
2013-03-13 12:30:00,68.1,58.0,30.07,ENE,59,5.0,5.0,70,0.00,,CLR,0.00,163.00,VWS V14.00,2013-03-13 16:30:00,
2013-03-13 12:35:00,68.3,57.8,30.06,NE,42,5.0,6.0,69,0.00,,CLR,0.00,188.00,VWS V14.00,2013-03-13 16:35:00,
2013-03-13 12:41:00,68.5,57.1,30.06,ENE,59,7.0,11.0,67,0.00,,CLR,0.00,139.00,VWS V14.00,2013-03-13 16:41:00,
2013-03-13 12:46:00,68.5,57.1,30.06,NNE,15,3.0,6.0,67,0.00,,CLR,0.00,142.00,VWS V14.00,2013-03-13 16:46:00,
2013-03-13 12:51:00,68.8,56.1,30.06,ENE,59,10.0,12.0,64,0.00,,CLR,0.00,218.00,VWS V14.00,2013-03-13 16:51:00,
2013-03-13 12:56:00,69.2,57.0,30.06,North,11,6.0,7.0,65,0.00,,CLR,0.00,176.00,VWS V14.00,2013-03-13 16:56:00,
2013-03-13 13:01:00,69.7,56.1,30.06,ENE,65,8.0,8.0,62,0.00,,CLR,0.00,206.00,VWS V14.00,2013-03-13 17:01:00,
2013-03-13 13:06:00,70.1,56.0,30.05,ENE,72,9.0,12.0,61,0.00,,CLR,0.00,167.00,VWS V14.00,2013-03-13 17:06:00,
2013-03-13 13:11:00,70.0,55.5,30.05,ENE,74,7.0,14.0,60,0.00,,CLR,0.00,153.00,VWS V14.00,2013-03-13 17:11:00,
2013-03-13 13:16:00,70.5,56.0,30.05,NE,36,10.0,10.0,60,0.00,,CLR,0.00,142.00,VWS V14.00,2013-03-13 17:16:00,
2013-03-13 13:21:00,71.0,55.0,30.05,NNE,27,5.0,12.0,57,0.00,,CLR,0.00,156.00,VWS V14.00,2013-03-13 17:21:00,
2013-03-13 13:26:00,71.3,54.8,30.05,East,79,10.0,15.0,56,0.00,,CLR,0.00,202.00,VWS V14.00,2013-03-13 17:26:00,
2013-03-13 13:32:00,71.1,55.1,30.05,ENE,67,4.0,10.0,57,0.00,,CLR,0.00,188.00,VWS V14.00,2013-03-13 17:32:00,
2013-03-13 13:37:00,71.5,55.5,30.05,NE,38,7.0,9.0,57,0.00,,CLR,0.00,200.00,VWS V14.00,2013-03-13 17:37:00,
2013-03-13 13:42:00,71.6,55.1,30.04,NE,53,4.0,10.0,56,0.00,,CLR,0.00,160.00,VWS V14.00,2013-03-13 17:42:00,
2013-03-13 13:47:00,71.5,54.5,30.04,ENE,78,7.0,13.0,55,0.00,,CLR,0.00,137.00,VWS V14.00,2013-03-13 17:47:00,
2013-03-13 13:52:00,71.4,54.9,30.04,East,84,10.0,12.0,56,0.00,,CLR,0.00,139.00,VWS V14.00,2013-03-13 17:52:00,
2013-03-13 13:57:00,71.1,55.1,30.03,NE,51,5.0,11.0,57,0.00,,CLR,0.00,181.00,VWS V14.00,2013-03-13 17:57:00,
2013-03-13 14:02:00,71.2,55.7,30.03,North,5,7.0,9.0,58,0.00,,CLR,0.00,172.00,VWS V14.00,2013-03-13 18:02:00,
2013-03-13 14:07:00,71.6,56.1,30.03,NE,44,9.0,9.0,58,0.00,,CLR,0.00,200.00,VWS V14.00,2013-03-13 18:07:00,
2013-03-13 14:12:00,72.0,54.5,30.03,ENE,68,10.0,13.0,54,0.00,,CLR,0.00,176.00,VWS V14.00,2013-03-13 18:12:00,
2013-03-13 14:17:00,71.9,55.9,30.02,ENE,57,6.0,12.0,57,0.00,,CLR,0.00,176.00,VWS V14.00,2013-03-13 18:17:00,
2013-03-13 14:22:00,72.0,56.4,30.02,NNE,28,9.0,11.0,58,0.00,,CLR,0.00,202.00,VWS V14.00,2013-03-13 18:22:00,
2013-03-13 14:27:00,72.0,54.5,30.02,NNE,16,10.0,11.0,54,0.00,,CLR,0.00,186.00,VWS V14.00,2013-03-13 18:27:00,
2013-03-13 14:32:00,72.5,53.9,30.02,ENE,60,10.0,10.0,52,0.00,,CLR,0.00,192.00,VWS V14.00,2013-03-13 18:32:00,
2013-03-13 14:37:00,72.3,54.7,30.02,NE,44,9.0,12.0,54,0.00,,CLR,0.00,176.00,VWS V14.00,2013-03-13 18:37:00,
2013-03-13 14:42:00,72.7,51.9,30.02,ENE,76,5.0,13.0,48,0.00,,CLR,0.00,185.00,VWS V14.00,2013-03-13 18:42:00,
2013-03-13 14:47:00,73.0,54.9,30.02,NE,39,11.0,13.0,53,0.00,,CLR,0.00,195.00,VWS V14.00,2013-03-13 18:47:00,
2013-03-13 14:52:00,72.9,52.6,30.02,NNE,15,10.0,20.0,49,0.00,,CLR,0.00,158.00,VWS V14.00,2013-03-13 18:52:00,
2013-03-13 14:57:00,72.7,50.2,30.02,NNE,21,13.0,18.0,45,0.00,,CLR,0.00,176.00,VWS V14.00,2013-03-13 18:57:00,
2013-03-13 15:02:00,72.6,51.2,30.01,ENE,62,6.0,11.0,47,0.00,,CLR,0.00,183.00,VWS V14.00,2013-03-13 19:02:00,
2013-03-13 15:07:00,72.9,51.5,30.02,ENE,59,10.0,12.0,47,0.00,,CLR,0.00,169.00,VWS V14.00,2013-03-13 19:07:00,
2013-03-13 15:12:00,72.9,52.1,30.02,NE,47,13.0,14.0,48,0.00,,CLR,0.00,183.00,VWS V14.00,2013-03-13 19:12:00,
2013-03-13 15:17:00,72.5,50.6,30.02,ENE,63,14.0,14.0,46,0.00,,CLR,0.00,171.00,VWS V14.00,2013-03-13 19:17:00,
2013-03-13 15:22:00,72.4,51.0,30.02,NE,51,13.0,15.0,47,0.00,,CLR,0.00,172.00,VWS V14.00,2013-03-13 19:22:00,
2013-03-13 15:28:00,72.4,51.0,30.02,NE,42,12.0,17.0,47,0.00,,CLR,0.00,186.00,VWS V14.00,2013-03-13 19:28:00,
2013-03-13 15:33:00,72.6,51.2,30.01,NE,37,12.0,17.0,47,0.00,,CLR,0.00,139.00,VWS V14.00,2013-03-13 19:33:00,
2013-03-13 15:38:00,72.6,51.8,30.01,NE,37,9.0,17.0,48,0.00,,CLR,0.00,163.00,VWS V14.00,2013-03-13 19:38:00,
2013-03-13 15:43:00,72.6,50.7,30.01,NE,48,9.0,11.0,46,0.00,,CLR,0.00,130.00,VWS V14.00,2013-03-13 19:43:00,
2013-03-13 15:48:00,72.5,50.6,30.01,NNE,12,6.0,12.0,46,0.00,,CLR,0.00,144.00,VWS V14.00,2013-03-13 19:48:00,
2013-03-13 15:53:00,72.7,49.5,30.01,ENE,60,7.0,14.0,44,0.00,,CLR,0.00,153.00,VWS V14.00,2013-03-13 19:53:00,
2013-03-13 15:58:00,72.6,50.1,30.01,NE,41,12.0,13.0,45,0.00,,CLR,0.00,125.00,VWS V14.00,2013-03-13 19:58:00,
2013-03-13 16:03:00,72.5,50.0,30.00,ENE,61,5.0,12.0,45,0.00,,CLR,0.00,121.00,VWS V14.00,2013-03-13 20:03:00,
2013-03-13 16:08:00,72.6,50.7,30.00,North,11,10.0,11.0,46,0.00,,CLR,0.00,153.00,VWS V14.00,2013-03-13 20:08:00,
2013-03-13 16:13:00,72.8,49.6,30.00,ENE,62,10.0,14.0,44,0.00,,CLR,0.00,142.00,VWS V14.00,2013-03-13 20:13:00,
2013-03-13 16:18:00,73.1,48.7,30.00,ENE,71,10.0,11.0,42,0.00,,CLR,0.00,109.00,VWS V14.00,2013-03-13 20:18:00,
2013-03-13 16:23:00,72.8,49.6,30.00,NE,49,7.0,13.0,44,0.00,,CLR,0.00,135.00,VWS V14.00,2013-03-13 20:23:00,
2013-03-13 16:28:00,72.8,50.8,30.00,ENE,68,7.0,11.0,46,0.00,,CLR,0.00,123.00,VWS V14.00,2013-03-13 20:28:00,
2013-03-13 16:33:00,72.8,50.2,30.00,ENE,63,9.0,14.0,45,0.00,,CLR,0.00,120.00,VWS V14.00,2013-03-13 20:33:00,
2013-03-13 16:38:00,72.7,50.8,30.00,East,80,9.0,9.0,46,0.00,,CLR,0.00,116.00,VWS V14.00,2013-03-13 20:38:00,
2013-03-13 16:43:00,72.6,51.2,30.00,East,81,6.0,12.0,47,0.00,,CLR,0.00,114.00,VWS V14.00,2013-03-13 20:43:00,
2013-03-13 16:48:00,72.8,49.0,30.00,ENE,71,12.0,12.0,43,0.00,,CLR,0.00,91.00,VWS V14.00,2013-03-13 20:48:00,
2013-03-13 16:53:00,72.6,50.7,30.00,ENE,63,7.0,12.0,46,0.00,,CLR,0.00,102.00,VWS V14.00,2013-03-13 20:53:00,
2013-03-13 16:58:00,72.4,51.6,30.00,NE,51,5.0,9.0,48,0.00,,CLR,0.00,109.00,VWS V14.00,2013-03-13 20:58:00,
2013-03-13 17:03:00,72.5,50.6,30.00,NE,51,13.0,13.0,46,0.00,,CLR,0.00,102.00,VWS V14.00,2013-03-13 21:03:00,
2013-03-13 17:08:00,72.3,50.4,30.00,NE,55,3.0,11.0,46,0.00,,CLR,0.00,118.00,VWS V14.00,2013-03-13 21:08:00,
2013-03-13 17:13:00,72.5,49.4,30.00,NE,36,7.0,16.0,44,0.00,,CLR,0.00,114.00,VWS V14.00,2013-03-13 21:13:00,
2013-03-13 17:18:00,72.2,48.5,30.00,NE,48,9.0,10.0,43,0.00,,CLR,0.00,107.00,VWS V14.00,2013-03-13 21:18:00,
2013-03-13 17:23:00,72.3,46.7,30.00,NE,36,15.0,15.0,40,0.00,,CLR,0.00,109.00,VWS V14.00,2013-03-13 21:23:00,
2013-03-13 17:28:00,72.0,47.0,30.00,NE,43,10.0,16.0,41,0.00,,CLR,0.00,109.00,VWS V14.00,2013-03-13 21:28:00,
2013-03-13 17:33:00,71.9,47.6,30.00,NNE,21,9.0,15.0,42,0.00,,CLR,0.00,107.00,VWS V14.00,2013-03-13 21:33:00,
2013-03-13 17:38:00,71.7,45.5,30.00,ENE,59,11.0,17.0,39,0.00,,CLR,0.00,102.00,VWS V14.00,2013-03-13 21:38:00,
2013-03-13 17:43:00,71.7,46.8,30.00,NE,55,10.0,14.0,41,0.00,,CLR,0.00,98.00,VWS V14.00,2013-03-13 21:43:00,
2013-03-13 17:48:00,71.6,47.3,30.00,North,5,9.0,11.0,42,0.00,,CLR,0.00,98.00,VWS V14.00,2013-03-13 21:48:00,
2013-03-13 17:53:00,71.5,47.8,30.00,NE,40,2.0,10.0,43,0.00,,CLR,0.00,97.00,VWS V14.00,2013-03-13 21:53:00,
2013-03-13 17:58:00,71.4,49.0,30.00,NNE,15,11.0,11.0,45,0.00,,CLR,0.00,95.00,VWS V14.00,2013-03-13 21:58:00,
2013-03-13 18:03:00,71.3,49.5,30.00,ENE,65,10.0,11.0,46,0.00,,CLR,0.00,93.00,VWS V14.00,2013-03-13 22:03:00,
2013-03-13 18:08:00,71.1,48.7,30.00,ENE,63,5.0,10.0,45,0.00,,CLR,0.00,90.00,VWS V14.00,2013-03-13 22:08:00,
2013-03-13 18:13:00,71.0,47.4,30.00,ENE,57,7.0,10.0,43,0.00,,CLR,0.00,86.00,VWS V14.00,2013-03-13 22:13:00,
2013-03-13 18:18:00,71.0,48.0,30.00,ENE,69,9.0,10.0,44,0.00,,CLR,0.00,83.00,VWS V14.00,2013-03-13 22:18:00,
2013-03-13 18:23:00,71.0,45.5,30.01,ENE,57,9.0,14.0,40,0.00,,CLR,0.00,77.00,VWS V14.00,2013-03-13 22:23:00,
2013-03-13 18:28:00,71.0,46.1,30.01,ENE,63,7.0,13.0,41,0.00,,CLR,0.00,74.00,VWS V14.00,2013-03-13 22:28:00,
2013-03-13 18:33:00,70.9,44.7,30.01,NE,56,7.0,12.0,39,0.00,,CLR,0.00,70.00,VWS V14.00,2013-03-13 22:33:00,
2013-03-13 18:38:00,70.8,46.6,30.01,ENE,61,5.0,6.0,42,0.00,,CLR,0.00,67.00,VWS V14.00,2013-03-13 22:38:00,
2013-03-13 18:43:00,70.7,47.1,30.01,NE,56,6.0,9.0,43,0.00,,CLR,0.00,63.00,VWS V14.00,2013-03-13 22:43:00,
2013-03-13 18:48:00,70.6,48.8,30.01,NE,42,9.0,11.0,46,0.00,,CLR,0.00,54.00,VWS V14.00,2013-03-13 22:48:00,
2013-03-13 18:53:00,70.5,49.9,30.01,ENE,65,4.0,6.0,48,0.00,,CLR,0.00,44.00,VWS V14.00,2013-03-13 22:53:00,
2013-03-13 18:58:00,70.4,48.7,30.01,ENE,61,4.0,10.0,46,0.00,,CLR,0.00,40.00,VWS V14.00,2013-03-13 22:58:00,
2013-03-13 19:03:00,70.2,47.3,30.01,ENE,59,8.0,10.0,44,0.00,,CLR,0.00,33.00,VWS V14.00,2013-03-13 23:03:00,
2013-03-13 19:09:00,69.9,45.8,30.01,ENE,64,0.0,0.0,42,0.00,,CLR,0.00,9.00,VWS V14.00,2013-03-13 23:09:00,
2013-03-13 19:14:00,69.6,45.5,30.01,ENE,60,0.0,0.0,42,0.00,,CLR,0.00,9.00,VWS V14.00,2013-03-13 23:14:00,
2013-03-13 19:19:00,69.4,45.3,30.02,ENE,67,3.0,5.0,42,0.00,,CLR,0.00,9.00,VWS V14.00,2013-03-13 23:19:00,
2013-03-13 19:24:00,69.2,46.4,30.02,ENE,69,4.0,5.0,44,0.00,,CLR,0.00,0.00,VWS V14.00,2013-03-13 23:24:00,
2013-03-13 19:29:00,69.0,47.4,30.02,ENE,73,3.0,5.0,46,0.00,,CLR,0.00,0.00,VWS V14.00,2013-03-13 23:29:00,
2013-03-13 19:34:00,68.7,47.1,30.02,ENE,74,3.0,3.0,46,0.00,,CLR,0.00,0.00,VWS V14.00,2013-03-13 23:34:00,
2013-03-13 19:39:00,68.4,47.4,30.02,ENE,74,0.0,1.0,47,0.00,,CLR,0.00,0.00,VWS V14.00,2013-03-13 23:39:00,
2013-03-13 19:44:00,68.2,47.2,30.02,ENE,74,0.0,3.0,47,0.00,,CLR,0.00,0.00,VWS V14.00,2013-03-13 23:44:00,
2013-03-13 19:49:00,67.9,47.0,30.02,ENE,74,0.0,1.0,47,0.00,,CLR,0.00,0.00,VWS V14.00,2013-03-13 23:49:00,
2013-03-13 19:54:00,67.7,46.8,30.02,ENE,74,0.0,0.0,47,0.00,,CLR,0.00,0.00,VWS V14.00,2013-03-13 23:54:00,
2013-03-13 19:59:00,67.5,47.1,30.02,ENE,74,2.0,4.0,48,0.00,,CLR,0.00,0.00,VWS V14.00,2013-03-13 23:59:00,
2013-03-13 20:04:00,67.3,47.5,30.03,ENE,74,0.0,1.0,49,0.00,,CLR,0.00,0.00,VWS V14.00,2013-03-14 00:04:00,
2013-03-13 20:09:00,67.1,47.3,30.03,ENE,74,0.0,0.0,49,0.00,,CLR,0.00,0.00,VWS V14.00,2013-03-14 00:09:00,
2013-03-13 20:14:00,66.9,47.1,30.04,ENE,74,0.0,1.0,49,0.00,,CLR,0.00,0.00,VWS V14.00,2013-03-14 00:14:00,
2013-03-13 20:19:00,66.8,47.0,30.04,ENE,74,0.0,0.0,49,0.00,,CLR,0.00,0.00,VWS V14.00,2013-03-14 00:19:00,
2013-03-13 20:24:00,66.6,47.4,30.04,ENE,74,0.0,0.0,50,0.00,,CLR,0.00,0.00,VWS V14.00,2013-03-14 00:24:00,
2013-03-13 20:29:00,66.4,48.8,30.04,ENE,74,0.0,1.0,53,0.00,,CLR,0.00,0.00,VWS V14.00,2013-03-14 00:29:00,
2013-03-13 20:34:00,66.2,48.1,30.04,ENE,74,0.0,4.0,52,0.00,,CLR,0.00,0.00,VWS V14.00,2013-03-14 00:34:00,
2013-03-13 20:39:00,66.1,48.5,30.04,ENE,74,0.0,0.0,53,0.00,,CLR,0.00,0.00,VWS V14.00,2013-03-14 00:39:00,
2013-03-13 20:44:00,65.9,48.8,30.04,ENE,74,0.0,2.0,54,0.00,,CLR,0.00,0.00,VWS V14.00,2013-03-14 00:44:00,
2013-03-13 20:49:00,65.8,49.2,30.04,ENE,74,0.0,0.0,55,0.00,,CLR,0.00,0.00,VWS V14.00,2013-03-14 00:49:00,
2013-03-13 20:54:00,65.5,48.9,30.04,ENE,74,0.0,0.0,55,0.00,,CLR,0.00,0.00,VWS V14.00,2013-03-14 00:54:00,
2013-03-13 20:59:00,65.3,50.6,30.05,ENE,74,1.0,1.0,59,0.00,,CLR,0.00,0.00,VWS V14.00,2013-03-14 00:59:00,
2013-03-13 21:04:00,65.0,49.9,30.05,ENE,74,0.0,0.0,58,0.00,,CLR,0.00,0.00,VWS V14.00,2013-03-14 01:04:00,
2013-03-13 21:09:00,64.8,50.2,30.05,ENE,74,0.0,2.0,59,0.00,,CLR,0.00,0.00,VWS V14.00,2013-03-14 01:09:00,
2013-03-13 21:14:00,64.6,50.4,30.05,ENE,74,0.0,0.0,60,0.00,,CLR,0.00,0.00,VWS V14.00,2013-03-14 01:14:00,
2013-03-13 21:19:00,64.3,50.1,30.05,ENE,74,0.0,0.0,60,0.00,,CLR,0.00,0.00,VWS V14.00,2013-03-14 01:19:00,
2013-03-13 21:24:00,64.1,50.4,30.05,ENE,74,0.0,0.0,61,0.00,,CLR,0.00,0.00,VWS V14.00,2013-03-14 01:24:00,
2013-03-13 21:29:00,63.9,51.1,30.05,ENE,74,0.0,0.0,63,0.00,,CLR,0.00,0.00,VWS V14.00,2013-03-14 01:29:00,
2013-03-13 21:34:00,63.6,51.2,30.05,ENE,74,0.0,0.0,64,0.00,,CLR,0.00,0.00,VWS V14.00,2013-03-14 01:34:00,
2013-03-13 21:39:00,63.3,50.9,30.06,ENE,74,0.0,0.0,64,0.00,,CLR,0.00,0.00,VWS V14.00,2013-03-14 01:39:00,
2013-03-13 21:44:00,63.1,51.2,30.06,ENE,74,0.0,0.0,65,0.00,,CLR,0.00,0.00,VWS V14.00,2013-03-14 01:44:00,
2013-03-13 21:49:00,62.8,51.7,30.06,ENE,74,0.0,0.0,67,0.00,,CLR,0.00,0.00,VWS V14.00,2013-03-14 01:49:00,
2013-03-13 21:54:00,62.5,51.4,30.06,ENE,74,0.0,0.0,67,0.00,,CLR,0.00,0.00,VWS V14.00,2013-03-14 01:54:00,
2013-03-13 21:59:00,62.3,51.2,30.07,ENE,74,0.0,0.0,67,0.00,,CLR,0.00,0.00,VWS V14.00,2013-03-14 01:59:00,
2013-03-13 22:05:00,62.1,51.4,30.07,ENE,74,0.0,1.0,68,0.00,,CLR,0.00,0.00,VWS V14.00,2013-03-14 02:05:00,
2013-03-13 22:10:00,61.9,51.2,30.07,ENE,74,0.0,0.0,68,0.00,,CLR,0.00,0.00,VWS V14.00,2013-03-14 02:10:00,
2013-03-13 22:15:00,61.7,51.4,30.07,ENE,74,0.0,0.0,69,0.00,,CLR,0.00,0.00,VWS V14.00,2013-03-14 02:15:00,
2013-03-13 22:20:00,61.6,51.7,30.07,ENE,74,0.0,0.0,70,0.00,,CLR,0.00,0.00,VWS V14.00,2013-03-14 02:20:00,
2013-03-13 22:25:00,61.4,51.9,30.07,ENE,74,0.0,0.0,71,0.00,,CLR,0.00,0.00,VWS V14.00,2013-03-14 02:25:00,
2013-03-13 22:30:00,61.3,51.8,30.07,ENE,74,0.0,0.0,71,0.00,,CLR,0.00,0.00,VWS V14.00,2013-03-14 02:30:00,
2013-03-13 22:35:00,61.2,52.1,30.07,ENE,74,0.0,0.0,72,0.00,,CLR,0.00,0.00,VWS V14.00,2013-03-14 02:35:00,
2013-03-13 22:40:00,61.1,52.0,30.08,ENE,74,0.0,0.0,72,0.00,,CLR,0.00,0.00,VWS V14.00,2013-03-14 02:40:00,
2013-03-13 22:45:00,61.0,51.9,30.08,ENE,74,0.0,0.0,72,0.00,,CLR,0.00,0.00,VWS V14.00,2013-03-14 02:45:00,
2013-03-13 22:50:00,61.0,52.3,30.07,ENE,74,0.0,0.0,73,0.00,,CLR,0.00,0.00,VWS V14.00,2013-03-14 02:50:00,
2013-03-13 22:55:00,60.9,52.2,30.07,ENE,74,0.0,0.0,73,0.00,,CLR,0.00,0.00,VWS V14.00,2013-03-14 02:55:00,
2013-03-13 23:00:00,60.8,52.5,30.07,ENE,74,0.0,0.0,74,0.00,,CLR,0.00,0.00,VWS V14.00,2013-03-14 03:00:00,
2013-03-13 23:05:00,60.8,53.2,30.07,ENE,74,0.0,0.0,76,0.00,,CLR,0.00,0.00,VWS V14.00,2013-03-14 03:05:00,
2013-03-13 23:10:00,60.8,52.8,30.07,ENE,74,0.0,0.0,75,0.00,,CLR,0.00,0.00,VWS V14.00,2013-03-14 03:10:00,
2013-03-13 23:15:00,60.8,52.8,30.08,ENE,74,0.0,0.0,75,0.00,,CLR,0.00,0.00,VWS V14.00,2013-03-14 03:15:00,
2013-03-13 23:20:00,60.7,53.1,30.08,ENE,74,0.0,0.0,76,0.00,,CLR,0.00,0.00,VWS V14.00,2013-03-14 03:20:00,
2013-03-13 23:25:00,60.6,53.0,30.08,ENE,74,0.0,0.0,76,0.00,,CLR,0.00,0.00,VWS V14.00,2013-03-14 03:25:00,
2013-03-13 23:30:00,60.4,53.2,30.08,ENE,74,0.0,0.0,77,0.00,,CLR,0.00,0.00,VWS V14.00,2013-03-14 03:30:00,
2013-03-13 23:35:00,60.3,53.1,30.08,ENE,74,0.0,0.0,77,0.00,,CLR,0.00,0.00,VWS V14.00,2013-03-14 03:35:00,
2013-03-13 23:40:00,60.2,53.3,30.08,ENE,74,0.0,0.0,78,0.00,,CLR,0.00,0.00,VWS V14.00,2013-03-14 03:40:00,
2013-03-13 23:45:00,60.1,53.9,30.08,ENE,74,0.0,0.0,80,0.00,,CLR,0.00,0.00,VWS V14.00,2013-03-14 03:45:00,
2013-03-13 23:50:00,60.0,53.8,30.08,ENE,74,0.0,0.0,80,0.00,,CLR,0.00,0.00,VWS V14.00,2013-03-14 03:50:00,
2013-03-13 23:55:00,59.9,54.1,30.08,ENE,74,0.0,0.0,81,0.00,,CLR,0.00,0.00,VWS V14.00,2013-03-14 03:55:00,